Hourly Data Report for October 10, 2014

All times are specified in Local Standard Time (LST). Add 1 hour to adjust for Daylight Saving Time where and when it is observed.

HALL BEACH A
NUNAVUT

68°46'33.000" N
81°14'33.000" W
9.10 m
2402354
71293
YUX

Download Data

Hourly Data (October 2014)
Hourly Data Report for October 10, 2014
Temp Definition
°C
Dew Point Temp Definition
°C
Rel Hum Definition
%
Wind Dir Definition
10's deg

Wind Spd Definition
km/h
Visibility Definition
km
Stn Press Definition
kPa
Hmdx Definition


Wind Chill Definition


Weather Definition


TIME
00:00 Legend Double Dagger -3.6 -6.4 81 3 34 16.1 101.42   -12 LegendNANA
01:00 Legend Double Dagger -3.5 -5.8 84 3 34 16.1 101.35   -11 LegendNANA
02:00 Legend Double Dagger -3.1 -5.0 87 4 39 16.1 101.28   -11 LegendNANA
03:00 Legend Double Dagger -2.7 -4.7 86 4 32 16.1 101.24   -10 LegendNANA
04:00 Legend Double Dagger -3.0 -4.6 89 5 35 16.1 101.18   -11 LegendNANA
05:00 Legend Double Dagger -3.4 -5.2 88 5 34 16.1 101.12   -11 LegendNANA
06:00 Legend Double Dagger -3.6 -5.6 86 4 37 16.1 101.01   -12 LegendNANA
07:00 Legend Double Dagger -3.8 -6.0 85 4 41 16.1 100.93   -13 LegendNANA
08:00 Legend Double Dagger -3.7 -5.7 86 3 39 16.1 100.82   -12 LegendNANA
09:00 Legend Double Dagger -3.2 -5.4 85 3 41 16.1 100.72   -12 LegendNANA
10:00 Legend Double Dagger -3.1 -5.6 83 3 39 16.1 100.58   -11 LegendNANA
11:00 Legend Double Dagger -3.2 -5.7 83 3 39 16.1 100.47   -12 LegendNANA
12:00 Legend Double Dagger -2.9 -5.1 85 2 39 16.1 100.34   -11 LegendNANA
13:00 Legend Double Dagger -2.7 -5.1 84 2 37 16.1 100.26   -11 LegendNANA
14:00 Legend Double Dagger -2.5 -4.4 87 2 39 16.1 100.19   -11 Snow
15:00 Legend Double Dagger -2.7 -3.3 96 2 43 0.8 100.06   -11 Moderate Snow
16:00 Legend Double Dagger -2.5 -2.9 97 2 41 1.6 99.95   -11 Snow
17:00 Legend Double Dagger -2.4 -2.8 97 2 43 2.4 99.87   -11 Snow
18:00 Legend Double Dagger -2.2 -3.0 94 1 41 4.0 99.79   -10 Snow
19:00 Legend Double Dagger -1.9 -2.6 95 2 43 4.8 99.73   -10 Snow
20:00 Legend Double Dagger -2.1 -2.7 96 1 45 3.6 99.65   -11 Snow
21:00 Legend Double Dagger -2.0 -2.6 96 1 45 4.8 99.60   -10 Snow
22:00 Legend Double Dagger -1.8 -2.2 97 2 37 2.0 99.52   -10 Snow
23:00 Legend Double Dagger -1.5 -1.8 98 2 34 2.0 99.48   -9 Snow

Notes on Data Quality.

Legend

  • E = Estimated
  • M = Missing
  • NA = Not Available
  • ‡ = Partner data that is not subject to review by the National Climate Archives
Date modified: